Regional Weather Roundup
Issued by NWS Newport/Morehead, NC

Current Version | Previous Version | Text Only | Print | Product List | Glossary On
Versions: 1 2 3 4 5 6 7 8 9 10 11 12 13 14 15 16 17 18 19 20 21 22 23 24 25 26 27 28 29 30 31 32 33 34 35 36 37 38 39 40 41 42 43 44 45 46 47 48 49 50
000 ASUS42 KMHX 231610 RWRMHX WEATHER ROUNDUP FOR EASTERN NORTH CAROLINA NATIONAL WEATHER SERVICE NEWPORT/MOREHEAD CITY NC 1200 PM EDT TUE SEP 23 2014 NOTE: "FAIR" INDICATES FEW OR NO CLOUDS BELOW 12,000 FEET WITH NO SIGNIFICANT WEATHER AND/OR OBSTRUCTIONS TO VISIBILITY NCZ015>017-031-032-045>047-102-103-231700- NORTH COAST CITY SKY/WX TMP DP RH WIND PRES REMARKS EDENTON CLOUDY 65 57 76 NE8 30.30R ELIZABETH CITY CLOUDY 66 58 75 N14 30.29S KITTY HAWK CLOUDY 68 56 65 N6 30.26R MANTEO CLOUDY 68 57 68 N9G17 30.27R $$ NCZ045>047-081-094-103-104-231700- CENTRAL COAST CITY SKY/WX TMP DP RH WIND PRES REMARKS FRISCO CLOUDY 69 62 78 NE13G23 30.22S SWANQUARTER N/A 68 N/A N/A N9G15 30.21S $$ NCZ095-097-098-100-101-231700- SOUTHERN COAST CITY SKY/WX TMP DP RH WIND PRES REMARKS BEAUFORT CLOUDY 70 62 76 NE15G25 30.21S CEDAR ISLAND N/A 70 N/A N/A N22 30.27S JACKSONVILLE LGT RAIN 65 57 75 N14G22 30.22F NEWPORT NOT AVBL PINEY ISLAND CLOUDY 72 60 66 N20G25 30.22S WILMINGTON LGT RAIN 63 60 90 N13 30.22S $$ NCZ011>013-027>030-043-044-078>080-089-090>093-098-231700- COASTAL PLAIN CITY SKY/WX TMP DP RH WIND PRES REMARKS AHOSKIE CLOUDY 61 52 72 N6 30.33R CLINTON LGT RAIN 63 54 72 N10 30.28S ELIZABETHTOWN CLOUDY 63 54 72 NE3 30.27R GOLDSBORO CLOUDY 63 56 78 N8 30.27F GREENVILLE CLOUDY 63 52 67 N10 30.30F HAVELOCK CLOUDY 67 59 75 N14 30.24S KENANSVILLE CLOUDY 62 52 68 N12 30.29R KINSTON CLOUDY 63 54 72 N8 30.29S NEW BERN CLOUDY 65 56 72 N13 30.26S RICHLANDS CLOUDY 63 54 72 N8 30.25S ROANOKE RAPIDS NOT AVBL ROCKY MOUNT CLOUDY 62 51 67 N8 30.31S WASHINGTON CLOUDY 62 55 77 N8 30.29S WHITEVILLE LGT RAIN 62 58 86 NE7 30.23F $$ AMZ130-135-150-152-154-156-158-170-250-252-270-ANZ085-086-088-633-658-670-231700- MARINE OBSERVATIONS STATION/POSITION TIME TEMP WIND PRES WAVE SWELL AIR SEA DIR/SP/G HT/PER HT/PER (UTC) (F) (DEG/KT/KT) (MB) (FT/S) (FT/S) CHESAPEAKE LIGHT 1500 64 20/ 19/ 22 1026.1 BUOY 44014 1600 69 76 40/ 12/ 16 1024.5 4/ 6 3/ 6 DUCK 1600 68 74 20/ 15/ 18 1024.4 2E DUCK 1600 N/A 4/ 6 OREGON INLET 1600 69 73 10/ 13/ 17 1024.2 BUOY 44095 1600 74 N/A 5/ 6 20E OREGON INLET NOT AVBL HATTERAS CG NOT AVBL DIAMOND BUOY 1600 74 30/ 21/ 25 1022.1 6/ 6 CAPE LOOKOUT 1500 72 30/ 20/ 24 1022.3 BEAUFORT LAB 1600 69 75 20/ 14/ 18 1022.4 30 SE NEW RIVER 1600 73 82 30/ 25/ 31 1020.8 6/ 6 5 SE WRIGHTSVILL 1500 66 79 30/ 19/ 23 N/A BUOY 41002 1516 75 81 70/ 16/ 19 1020.0 3/ 8 3/ 8 BUOY 41004 1600 76 81 60/ 21/ 23 1018.9 5/ 6 2/10 $$

USA.gov is the U.S. government's official web portal to all federal, state and local government web resources and services.